#timestamp,LO_Frequency,Hit,StdDev 
1512741615.7,286047002.0,N
1512741635.6,286047000.2,N
1512741655.4,286047000.1,N
1512741675.2,286046998.2,N
1512741695.1,286047001.1,N
1512741696.0,286047001.1,N
1512741715.8,286047000.4,N
1512741735.7,286047001.6,N
1512741755.5,286047002.3,N
1512741775.3,286047000.2,N
1512741795.2,286047002.1,N
1512741815.0,286047001.4,N
1512741815.9,286047001.4,N
1512741835.8,286047004.0,Y
1512741855.6,286047002.3,P
1512741875.4,286046999.7,N
1512741895.3,286047000.0,N
1512741915.1,286047000.6,N
1512741935.9,286047002.4,N
1512741955.7,286047002.3,N
1512741975.5,286047002.1,N
1512741995.4,286047001.6,N
1512742015.2,286047002.8,N
1512742035.0,286047002.4,N
1512742035.9,286047002.4,N
1512742055.8,286047002.5,N
1512742075.6,286047004.3,Y
1512742095.5,286047000.2,P
1512742115.3,286047002.4,P
1512742135.1,286047000.9,N
1512742155.9,286047001.2,N
1512742175.7,286047000.8,N
1512742195.5,286047000.7,N
1512742215.4,286046998.2,N
1512742235.2,286046998.7,N
1512742255.1,286047000.7,N
1512742256.0,286047000.7,N
1512742275.8,286047000.7,N
1512742295.6,286046998.3,N
1512742315.5,286047000.7,N
1512742335.3,286047000.6,N
1512742355.1,286047001.2,N
1512742375.9,286047000.9,N
1512742395.7,286047000.0,N
1512742415.6,286047000.5,N
1512742435.4,286047001.1,N
1512742455.2,286047000.8,N
1512742475.1,286047001.0,N
1512742476.0,286047001.0,N
1512742495.8,286047002.2,N
1512742515.7,286047000.0,N
1512742535.5,286047001.0,N
1512742555.3,286046998.7,N
1512742575.2,286047000.9,N
1512742595.9,286047001.1,N
1512742615.7,286047001.2,N
1512742635.6,286047000.9,N
1512742655.4,286047001.2,N
1512742675.3,286047000.8,N
1512742695.1,286047000.5,N
1512742715.8,286047001.8,N
1512742735.7,286047002.1,N
1512742755.5,286047000.1,N
1512742775.4,286047002.8,N
1512742795.2,286047002.0,N
1512742815.0,286047004.1,Y
1512742815.9,286047004.1,P
1512742835.8,286047000.5,N
1512742855.6,286047000.1,N
1512742875.5,286046998.2,N
1512742895.3,286047002.8,N
1512742915.1,286047002.4,N
1512742935.9,286047001.0,N
1512742955.7,286047000.0,N
1512742975.5,286047001.6,N
1512742995.4,286047000.1,N
1512743015.2,286047001.1,N
1512743035.1,286046998.1,N
1512743036.0,286046998.1,N
1512743055.8,286047000.6,N
1512743075.6,286047001.2,N
1512743095.5,286046998.7,N
1512743115.3,286046998.2,N
1512743135.2,286047000.7,N
1512743155.9,286047001.0,N
1512743175.7,286046998.2,N
1512743195.6,286046998.9,N
1512743215.4,286046996.6,N
1512743235.2,286046997.7,N
1512743255.1,286046999.4,N
1512743256.0,286046999.4,N
1512743275.8,286046999.1,N
1512743295.7,286046998.8,N
1512743315.5,286046997.0,N
1512743335.3,286046996.7,N
1512743355.2,286046996.8,N
1512743375.0,286046996.6,N
1512743375.9,286046996.6,N
1512743395.8,286046998.1,N
1512743415.6,286046999.2,N
1512743435.4,286046999.3,N
1512743455.3,286046998.6,N
1512743475.1,286046999.4,N
1512743495.8,286046996.6,N
1512743515.7,286046998.9,N
1512743535.5,286047001.1,N
1512743555.4,286046998.1,N
1512743575.2,286046998.4,N
1512743595.0,286046998.2,N
1512743595.9,286046998.2,N
1512743615.8,286047000.8,N
1512743635.6,286046999.0,N
1512743655.5,286046999.2,N
1512743675.3,286046999.0,N
1512743695.1,286046999.5,N
1512743715.9,286046997.1,N
1512743735.7,286046997.4,N
1512743755.5,286046998.7,N
1512743775.4,286046999.0,N
1512743795.2,286046999.1,N
1512743815.1,286046997.0,N
1512743816.0,286046997.0,N
1512743835.8,286046996.9,N
1512743855.6,286046998.6,N
1512743875.5,286047000.9,N
1512743895.3,286047000.0,N
1512743915.1,286047000.6,N
1512743935.9,286046998.2,N
1512743955.7,286046999.4,N
1512743975.6,286046998.9,N
1512743995.4,286046998.6,N
1512744015.2,286047000.6,N
1512744035.1,286047002.3,N
1512744036.0,286047002.3,N
1512744055.8,286047002.1,N
1512744075.7,286047002.8,N
1512744095.5,286047001.0,N
1512744115.3,286047001.1,N
1512744135.2,286047002.1,N
1512744155.0,286047004.3,N
1512744155.9,286047004.3,N
1512744175.7,286047002.0,N
1512744195.6,286047002.0,N
1512744215.4,286047000.8,N
1512744235.3,286046998.1,N
1512744255.1,286047001.0,N
1512744256.0,286047001.0,N
1512744275.8,286047001.2,N
1512744295.7,286046999.2,N
1512744315.5,286046999.4,N
1512744335.3,286046998.7,N
1512744355.2,286046999.2,N
1512744375.0,286046999.6,N
1512744375.9,286046999.6,N
1512744395.8,286046997.0,N
1512744415.6,286046995.3,N
1512744435.4,286046997.6,N
1512744455.3,286046996.8,N
1512744475.1,286046998.8,N
1512744495.9,286046998.5,N
1512744515.7,286046998.4,N
1512744535.5,286046998.9,N
1512744555.4,286046999.4,N
1512744575.2,286046998.9,N
1512744595.0,286046999.0,N
1512744595.9,286046999.0,N
1512744615.8,286046999.5,N
1512744635.6,286046999.2,N
1512744655.5,286046996.8,N
1512744675.3,286046996.6,N
1512744695.1,286046999.1,N
1512744715.9,286046996.6,N
1512744735.7,286046998.9,N
1512744755.5,286046998.6,N
1512744775.4,286046998.8,N
1512744795.2,286046998.7,N
1512744815.1,286047000.8,N
1512744816.0,286047000.8,N
1512744835.8,286047002.2,N
1512744855.6,286047001.8,N
1512744875.5,286047001.9,N
1512744895.3,286047001.9,N
1512744915.2,286047001.4,N
1512744935.9,286047002.3,N
1512744955.7,286047002.3,N
1512744975.6,286046999.7,N
1512744995.4,286047002.0,N
1512745015.2,286047002.2,N
1512745035.1,286047002.0,N
1512745036.0,286047002.0,N
1512745055.8,286047001.7,N
1512745075.7,286046999.7,N
1512745095.5,286047002.1,N
1512745115.3,286047001.9,N
1512745135.2,286047002.8,N
1512745155.0,286047002.2,N
1512745155.9,286047002.2,N
1512745175.8,286047000.2,N
1512745195.6,286047000.5,N
